Augusta Bush, GA

3:45 PM EDT on April 23, 2018 (GMT -0400)
Augusta Regional At Bush

Weather History for KAGS - April, 2014

Change the Weather History Date:

Friday, April 18, 2014

  Actual Average Record
Temperature  
Mean Temperature 54 °F 63 °F  
Max Temperature 58 °F 78 °F 91 °F (1896)
Min Temperature 49 °F 49 °F 34 °F (1999)
Degree Days  
Heating Degree Days 11 4  
Month to date heating degree days 83 91  
Since 1 July heating degree days 2645 2419  
Cooling Degree Days 0 2  
Month to date cooling degree days 18 24  
Year to date cooling degree days 20 42  
Growing Degree Days 2 (Base 50)    
Moisture  
Dew Point 48 °F    
Average Humidity 79    
Maximum Humidity 96    
Minimum Humidity 62    
Precipitation  
Precipitation 1.76 in 0.09 in 2.19 in (1900)
Month to date precipitation 3.71 1.81  
Year to date precipitation 12.48 13.82  
Sea Level Pressure  
Sea Level Pressure 30.19 in    
Wind  
Wind Speed 10 mph (NE)    
Max Wind Speed 23 mph    
Max Gust Speed 29 mph    
Visibility 6 miles    
Events Rain    
T = Trace of Precipitation, MM = Missing Value Source: NWS Daily Summary

Daily Weather History Graph

Daily Weather History Graph

Search for Another Location

Airport or City:

Astronomy

Apr. 18, 2014 Rise Set
Actual Time 6:54 AM EDT 8:00 PM EDT
Civil Twilight 6:28 AM EDT 8:26 PM EDT
Nautical Twilight 5:57 AM EDT 8:57 PM EDT
Astronomical Twilight 5:26 AM EDT 9:28 PM EDT
Moon 11:38 PM EDT (4/18) 9:21 AM EDT (4/18)
Length of Visible Light 13h 58m
Length of Day
13h 06m
Waning Gibbous, 87% of the Moon is Illuminated
Apr 18
Waning Gibbous
Apr 22
Last Quarter
Apr 29
New
May 6
First Quarter
May 14
Full

Hourly Weather History & Observations

Time (EDT) Temp. Dew Point Humidity Pressure Visibility Wind Dir Wind Speed Gust Speed Precip Events Conditions
12:53 AM 48.0 °F 43.0 °F 83% 30.34 in 10.0 mi Calm Calm - N/A   Clear
1:53 AM 53.1 °F 43.0 °F 69% 30.32 in 10.0 mi East 4.6 mph - N/A   Clear
2:53 AM 53.1 °F 43.0 °F 69% 30.31 in 10.0 mi Calm Calm - N/A   Clear
3:53 AM 53.1 °F 45.0 °F 74% 30.29 in 10.0 mi ENE 6.9 mph - N/A   Clear
4:53 AM 54.0 °F 46.0 °F 75% 30.29 in 10.0 mi East 8.1 mph - N/A   Clear
5:53 AM 54.0 °F 46.0 °F 75% 30.28 in 10.0 mi NE 6.9 mph - N/A   Clear
6:53 AM 53.1 °F 46.0 °F 77% 30.29 in 10.0 mi North 6.9 mph - N/A   Clear
7:53 AM 54.0 °F 45.0 °F 72% 30.30 in 10.0 mi NNE 9.2 mph - N/A   Clear
8:53 AM 54.0 °F 45.0 °F 72% 30.31 in 10.0 mi NE 5.8 mph - N/A   Clear
9:53 AM 55.9 °F 44.1 °F 64% 30.32 in 10.0 mi NE 9.2 mph - N/A   Mostly Cloudy
10:53 AM 57.0 °F 45.0 °F 64% 30.33 in 10.0 mi NE 8.1 mph - N/A   Overcast
11:53 AM 57.9 °F 45.0 °F 62% 30.30 in 10.0 mi NNE 9.2 mph - N/A   Overcast
12:53 PM 57.0 °F 48.0 °F 72% 30.27 in 10.0 mi NNE 10.4 mph - 0.01 in Rain Light Rain
1:53 PM 55.0 °F 50.0 °F 83% 30.23 in 5.0 mi NNE 10.4 mph - 0.05 in Rain Rain
2:53 PM 55.0 °F 50.0 °F 83% 30.21 in 8.0 mi NNE 12.7 mph - 0.05 in Rain Light Rain
3:53 PM 54.0 °F 50.0 °F 86% 30.18 in 4.0 mi NNE 9.2 mph - 0.06 in Rain Light Rain
4:53 PM 53.6 °F 50.0 °F 88% 30.17 in 5.0 mi NNE 9.2 mph - N/A Rain Light Rain
5:07 PM 54.0 °F 50.0 °F 86% 30.17 in 3.0 mi NNE 9.2 mph - 0.03 in Rain Heavy Rain
5:10 PM 54.0 °F 50.0 °F 86% 30.17 in 3.0 mi NNE 9.2 mph - 0.04 in Rain Heavy Rain
5:53 PM 53.1 °F 50.0 °F 89% 30.13 in 3.0 mi NNE 15.0 mph - 0.16 in Rain Rain
6:36 PM 53.1 °F 50.0 °F 89% 30.15 in 3.0 mi NNE 15.0 mph - 0.14 in Rain Heavy Rain
6:43 PM 53.1 °F 48.9 °F 86% 30.14 in 3.0 mi NE 16.1 mph - 0.17 in Rain Rain
6:53 PM 53.1 °F 48.9 °F 86% 30.13 in 3.0 mi NNE 13.8 mph - 0.21 in Rain Heavy Rain
7:27 PM 53.1 °F 50.0 °F 89% 30.14 in 3.0 mi NNE 8.1 mph - 0.16 in Rain Heavy Rain
7:53 PM 53.6 °F 50.0 °F 88% 30.13 in 3.0 mi NE 12.7 mph - N/A Rain Heavy Rain
8:51 PM 51.8 °F 48.2 °F 88% 30.11 in 5.0 mi NE 11.5 mph 23.0 mph 0.14 in Rain Rain
8:53 PM 52.0 °F 48.9 °F 89% 30.11 in 5.0 mi NE 15.0 mph 23.0 mph 0.15 in Rain Rain
9:53 PM 53.1 °F 48.9 °F 86% 30.07 in 5.0 mi NE 18.4 mph 23.0 mph 0.13 in Rain Light Rain
10:00 PM 53.1 °F 48.9 °F 86% 30.06 in 5.0 mi NE 17.3 mph 25.3 mph 0.01 in Rain Rain
10:53 PM 53.6 °F 48.2 °F 82% 30.05 in 4.0 mi NNE 11.5 mph - N/A Rain Rain
11:17 PM 52.0 °F 50.0 °F 93% 30.05 in 2.0 mi NNE 12.7 mph - 0.10 in Rain Heavy Rain
11:22 PM 52.0 °F 50.0 °F 93% 30.05 in 1.8 mi NNE 13.8 mph - 0.15 in Rain Heavy Rain
11:33 PM 52.0 °F 50.0 °F 93% 30.05 in 2.5 mi NNE 12.7 mph - 0.24 in Rain Heavy Rain
11:42 PM 53.1 °F 50.0 °F 89% 30.05 in 3.0 mi NNE 11.5 mph - 0.28 in Rain Heavy Rain
11:53 PM 52.0 °F 50.0 °F 93% 30.05 in 4.0 mi NNE 10.4 mph - 0.32 in Rain Rain